Alexandria, Egypt

12:08 PM EET on November 25, 2017 (GMT +0200)
Alexandria

Weather History for HEAX - October, 2012

Change the Weather History Date:

Sunday, October 21, 2012

  Actual Average Record
Temperature  
Mean Temperature 77 °F -  
Max Temperature 81 °F 74 °F 92 °F (2015)
Min Temperature 73 °F 59 °F 57 °F (1997)
Cooling Degree Days 12    
Growing Degree Days 27 (Base 50)    
Moisture  
Dew Point 67 °F    
Average Humidity 71    
Maximum Humidity 89    
Minimum Humidity 56    
Precipitation  
Precipitation 0.00 in 0.03 in - ()
Sea Level Pressure  
Sea Level Pressure 29.91 in    
Wind  
Wind Speed 8 mph ()    
Max Wind Speed 12 mph    
Max Gust Speed -    
Visibility 6.2 miles    
Events      
Averages and records for this station are not official NWS values.
T = Trace of Precipitation, MM = Missing Value Source: Averaged Metar Reports

Daily Weather History Graph

Daily Weather History Graph

Search for Another Location

Airport or City:

Trip Planner

Search our weather history database for the weather conditions in past years. The results will help you decide how hot, cold, wet, or windy it might be!

Date:

Astronomy

Oct. 21, 2012 Rise Set
Actual Time 6:07 AM EET 5:21 PM EET
Civil Twilight 5:42 AM EET 5:46 PM EET
Nautical Twilight 5:14 AM EET 6:14 PM EET
Astronomical Twilight 4:46 AM EET 6:42 PM EET
Moon 12:05 PM EET (10/21) 11:00 PM EET (10/21)
Length of Visible Light 12h 03m
Length of Day
11h 14m
Waxing Crescent, 42% of the Moon is Illuminated
Oct 21
Waxing Crescent
Oct 22
First Quarter
Oct 29
Full
Nov 7
Last Quarter
Nov 14
New

Hourly Weather History & Observations

Time (EET) Temp. Heat Index Dew Point Humidity Pressure Visibility Wind Dir Wind Speed Gust Speed Precip Events Conditions
12:00 AM 75.2 °F - 69.8 °F 83% 29.89 in 6.2 mi NNW 6.9 mph - N/A   Scattered Clouds
1:00 AM 75.2 °F - 69.8 °F 83% 29.89 in 6.2 mi NW 9.2 mph - N/A   Scattered Clouds
2:00 AM 75 °F - 68 °F 74% 29.90 in 6 mi NW 9.2 mph - -   Partly Cloudy
2:00 AM 75.2 °F - 68.0 °F 78% 29.89 in 6.2 mi NW 9.2 mph - N/A   Scattered Clouds
3:00 AM 75.2 °F - 69.8 °F 83% 29.89 in 6.2 mi North 6.9 mph - N/A   Scattered Clouds
4:00 AM 75.2 °F - 71.6 °F 89% 29.92 in 6.2 mi North 9.2 mph - N/A   Scattered Clouds
5:00 AM 75.2 °F - 66.2 °F 73% 29.89 in 6.2 mi NNW 9.2 mph - N/A   Partly Cloudy
6:00 AM 71.6 °F - 68.0 °F 88% 29.89 in 6.2 mi North 6.9 mph - N/A   Partly Cloudy
7:00 AM 75.2 °F - 69.8 °F 83% 29.89 in 6.2 mi North 6.9 mph - N/A   Partly Cloudy
8:00 AM 76 °F - 67 °F 68% 29.91 in 6 mi North 6.9 mph - -   Partly Cloudy
8:00 AM 77.0 °F - 68.0 °F 74% 29.92 in 6.2 mi North 6.9 mph - N/A   Scattered Clouds
9:00 AM 78.8 °F - 68.0 °F 69% 29.92 in 6.2 mi North 8.1 mph - N/A   Scattered Clouds
10:00 AM 78.8 °F - 68.0 °F 69% 29.92 in 6.2 mi NNW 6.9 mph - N/A   Scattered Clouds
11:00 AM 80.6 °F 83.2 °F 68.0 °F 65% 29.89 in 6.2 mi NNW 6.9 mph - N/A   Scattered Clouds
12:00 PM 80.6 °F 83.2 °F 68.0 °F 65% 29.89 in 6.2 mi North 9.2 mph - N/A   Scattered Clouds
1:00 PM 80.6 °F 83.2 °F 68.0 °F 65% 29.89 in 6.2 mi North 11.5 mph - N/A   Scattered Clouds
2:00 PM 81 °F - 68 °F 56% 29.89 in 6 mi North 11.5 mph - -   Partly Cloudy
2:00 PM 80.6 °F 83.2 °F 68.0 °F 65% 29.89 in 6.2 mi North 11.5 mph - N/A   Scattered Clouds
3:00 PM 80.6 °F 83.2 °F 68.0 °F 65% 29.89 in 6.2 mi North 11.5 mph - N/A   Scattered Clouds
4:00 PM 78.8 °F - 66.2 °F 65% 29.89 in 6.2 mi North 9.2 mph - N/A   Scattered Clouds
5:00 PM 77.0 °F - 66.2 °F 69% 29.89 in 6.2 mi North 11.5 mph - N/A   Scattered Clouds
6:00 PM 77.0 °F - 62.6 °F 61% 29.92 in 6.2 mi NNW 11.5 mph - N/A   Partly Cloudy
7:00 PM 75.2 °F - 62.6 °F 65% 29.92 in 6.2 mi North 11.5 mph - N/A   Partly Cloudy
8:00 PM 75 °F - 63 °F 58% 29.94 in 6 mi North 11.5 mph - -   Scattered Clouds
8:00 PM 75.2 °F - 62.6 °F 65% 29.95 in 6.2 mi North 11.5 mph - N/A   Partly Cloudy
9:00 PM 75.2 °F - 62.6 °F 65% 29.95 in 6.2 mi NNE 9.2 mph - N/A   Partly Cloudy
10:00 PM 73.4 °F - 64.4 °F 73% 29.95 in 6.2 mi NNE 4.6 mph - N/A   Partly Cloudy
11:00 PM 73.4 °F - 64.4 °F 73% 29.95 in 6.2 mi NE 5.8 mph - N/A   Partly Cloudy